Location: Derby
(52.9213°N, 1.4761°W)
Time: 01:35:36
(UTC+01:00)

Vanguard 2 Rocket - Pass Details

Date: 25 May 2025
Orbit: 554 x 3293 km, 32.9° (Epoch: 12 June)

Event Time Altitude Azimuth Distance (km) Brightness Sun altitude
Rises 00:46:35 0° 249° (WSW) 7,219 11.3 -16.0°
Reaches altitude 10° 00:52:23 10° 241° (WSW) 6,030 10.8 -16.1°
Maximum altitude 01:07:00 33° 188° (S) 3,609 9.3 -16.1°
Drops below altitude 10° 01:17:09 10° 131° (SE) 4,167 9.9 -16.1°
Sets 01:20:19 0° 121° (ESE) 4,804 10.3 -16.0°
